Volver al catálogo

SL-16 DEB

ActivoLEO
NORAD 24303·DEBRIS·🇷🇺 Russia

Lanzado Sep 4, 1996 desde Baikonur Cosmodrome

Loading…

Próximos Pases (próximas 24 horas)

TLE

ActualizadoSource: Space-Track

Época: Sep 14, 2026, 14:13 UTC

1 24303U 96051G   26257.59274469 -.00000068  00000-0 -12073-4 0  9994
2 24303  71.1062 206.6004 0071733 219.6016 314.9302 14.08424301543253

Sigue SL-16 DEB en tiempo real con AllMySat

Download on the App Store